Location: Cabeza de los Veneras
(40.2000°N, 5.2000°W)
Time: 05:17:08
(UTC+00:00)

BlueWalker 3 - Pass Details

Date: 25 June 2024
Orbit: 480 x 491 km, 53.2° (Epoch: 21 July)

Event Time Altitude Azimuth Distance (km) Brightness Sun altitude
Rises 22:02:22 0° 303° (WNW) 2,541 6.7 -18.4°
Reaches altitude 10° 22:06:02 10° 340° (NNW) 1,660 5.7 -18.8°
Maximum altitude 22:07:11 11° 358° (N) 1,591 5.3 -18.9°
Drops below altitude 10° 22:08:19 10° 16° (NNE) 1,659 5.1 -19.1°
Sets 22:11:59 0° 53° (NE) 2,538 5.6 -19.4°
